GW5451 Weather Reports


Display with metric or nautical units.
time (UTC)temp
F
wind
direction
speed
MPH
gust
MPH
rain 1hr
in
rain 24hr
in
rain mn
in
humidity
%
barometer
mb
20260507020042 57 349 6.0 0.0 0.00 0.00 0.82 50 1005.9
20260507014558 58 343 3.0 0.0 0.00 0.00 0.82 51 1006.1
20260507013102 58 344 2.0 0.0 0.00 0.00 0.82 51 1005.9
20260507011559 59 305 1.0 0.0 0.00 0.00 0.82 51 1005.7
20260507010042 60 284 4.0 0.0 0.00 0.00 0.82 50 1005.2
20260507004543 60 309 5.0 0.0 0.00 0.00 0.82 50 1005.0
20260507003057 60 248 4.0 0.0 0.00 0.00 0.82 51 1004.7
20260507001604 60 254 3.0 0.0 0.00 0.00 0.82 53 1004.4
20260507000049 60 0.0 0.0 0.00 0.00 0.82 53 1004.0
20260506234539 61 282 6.0 0.0 0.00 0.00 0.82 55 1003.5
20260506233052 62 274 4.0 0.0 0.00 0.00 0.82 61 1003.4
20260506231535 63 263 3.0 0.0 0.00 0.00 0.82 61 1003.4
20260506230121 64 275 3.0 0.0 0.00 0.00 0.82 61 1003.3
20260506224551 64 258 4.0 0.0 0.00 0.00 0.79 58 1003.1
20260506223040 65 280 3.0 0.0 0.00 0.00 0.62 55 1003.0
20260506221530 66 215 2.0 0.0 0.00 0.00 0.34 49 1002.6
20260506220042 67 226 3.0 0.0 0.00 0.00 0.34 49 1002.6
20260506214609 67 263 3.0 0.0 0.00 0.00 0.34 49 1002.4
20260506213041 67 237 3.0 0.0 0.00 0.00 0.34 51 1002.3
20260506211534 66 226 3.0 0.0 0.00 0.00 0.34 51 1002.4
20260506210056 66 229 5.0 0.0 0.00 0.00 0.34 51 1002.2
20260506204547 66 349 4.0 0.0 0.00 0.00 0.34 52 1002.1
20260506203040 66 220 3.0 0.0 0.00 0.00 0.34 56 1002.1
20260506201548 64 220 2.0 0.0 0.00 0.00 0.34 57 1002.1
20260506200107 64 265 2.0 0.0 0.00 0.00 0.34 58 1002.3
20260506194558 63 250 4.0 0.0 0.00 0.00 0.34 58 1002.5
20260506193100 64 193 4.0 0.0 0.00 0.00 0.34 60 1002.4
20260506191551 63 258 5.0 0.0 0.00 0.00 0.34 60 1002.5
20260506190042 62 246 6.0 0.0 0.00 0.00 0.34 61 1002.5
20260506184535 62 237 5.0 0.0 0.00 0.00 0.34 62 1002.6
20260506183102 62 206 4.0 0.0 0.00 0.00 0.34 63 1002.7
20260506181601 62 353 3.0 0.0 0.00 0.00 0.34 64 1002.9
20260506180049 61 354 4.0 0.0 0.00 0.00 0.34 63 1003.1
20260506174553 61 352 3.0 0.0 0.00 0.00 0.34 64 1003.0
20260506173043 61 352 4.0 0.0 0.00 0.00 0.34 63 1003.0
20260506171549 61 352 2.0 0.0 0.00 0.00 0.33 63 1003.1
20260506170057 61 350 2.0 0.0 0.00 0.00 0.33 63 1003.1
20260506164546 61 353 3.0 0.0 0.00 0.00 0.33 63 1003.2
20260506163034 61 350 3.0 0.0 0.00 0.00 0.33 63 1003.1
20260506161536 61 353 4.0 0.0 0.00 0.00 0.33 63 1003.3
20260506160055 61 352 3.0 0.0 0.00 0.00 0.33 63 1003.2
20260506154608 61 352 3.0 0.0 0.00 0.00 0.33 63 1003.1
20260506153032 61 353 3.0 0.0 0.00 0.00 0.32 63 1003.1
20260506151559 61 352 3.0 0.0 0.00 0.00 0.29 62 1003.3
20260506150045 61 353 3.0 0.0 0.00 0.00 0.24 61 1003.9
20260506144533 61 354 4.0 0.0 0.00 0.00 0.18 60 1004.3
20260506143040 62 352 2.0 0.0 0.00 0.00 0.14 59 1003.9
20260506141615 61 350 2.0 0.0 0.00 0.00 0.12 59 1003.7
20260506140051 61 353 2.0 0.0 0.00 0.00 0.10 58 1003.6
20260506134550 62 352 2.0 0.0 0.00 0.00 0.07 57 1003.8
20260506133100 62 352 2.0 0.0 0.00 0.00 0.05 58 1003.9
20260506131530 62 0.0 0.0 0.00 0.00 0.05 55 1003.8
20260506130053 62 352 1.0 0.0 0.00 0.00 0.04 54 1004.0
20260506124556 62 0.0 0.0 0.00 0.00 0.01 51 1004.1
20260506123055 62 0.0 0.0 0.00 0.00 0.01 50 1004.2
20260506121545 0 0.0 0.0 0.00 0.00 0.01 1004.3
20260506120126 63 354 2.0 0.0 0.00 0.00 0.01 44 1004.0
20260506114533 64 352 2.0 0.0 0.00 0.00 0.00 42 1003.8
20260506113120 64 352 2.0 0.0 0.00 0.00 0.00 40 1003.8
20260506111547 63 176 1.0 0.0 0.00 0.00 0.00 42 1003.6
20260506110049 61 174 1.0 0.0 0.00 0.00 0.00 45 1003.5
20260506104542 60 174 1.0 0.0 0.00 0.00 0.00 48 1003.4
20260506103044 59 175 0.0 0.0 0.00 0.00 0.00 48 1003.2
20260506101533 59 175 0.0 0.0 0.00 0.00 0.00 48 1003.0
20260506100121 59 175 0.0 0.0 0.00 0.00 0.00 47 1002.9
20260506094551 58 172 0.0 0.0 0.00 0.00 0.00 48 1003.0
20260506093041 58 174 1.0 0.0 0.00 0.00 0.00 50 1003.1
20260506091532 57 172 0.0 0.0 0.00 0.00 0.00 50 1003.1
20260506090032 57 172 0.0 0.0 0.00 0.00 0.00 48 1003.2
20260506084552 57 172 0.0 0.0 0.00 0.00 0.00 47 1003.1
20260506083044 57 174 1.0 0.0 0.00 0.00 0.00 47 1003.3
20260506081533 57 172 0.0 0.0 0.00 0.00 0.00 47 1003.3
20260506073101 58 175 0.0 0.0 0.00 0.00 0.00 44 1003.4
20260506071554 58 175 0.0 0.0 0.00 0.00 0.00 43 1003.5
20260506061549 59 171 0.0 0.0 0.00 0.00 0.00 39 1004.1
20260506044542 59 352 0.0 0.0 0.00 0.00 0.00 30 1004.5
20260506043049 60 350 0.0 0.0 0.00 0.00 0.00 29 1004.5
20260506041535 61 352 0.0 0.0 0.00 0.00 0.00 28 1004.6
20260506040121 62 352 0.0 0.0 0.00 0.00 0.00 26 1004.6
20260506034530 63 352 0.0 0.0 0.00 0.00 0.00 24 1004.6
20260506033034 64 353 0.0 0.0 0.00 0.00 0.00 20 1004.4
20260506031602 66 172 1.0 0.0 0.00 0.00 0.00 17 1004.4
20260506030050 66 172 1.0 0.0 0.00 0.00 0.00 16 1004.3
20260506024614 67 171 0.0 0.0 0.00 0.00 0.00 15 1004.4
20260506023048 68 171 1.0 0.0 0.00 0.00 0.00 14 1004.5
20260506021533 69 174 1.0 0.0 0.00 0.00 0.00 14 1004.4